Reflectivity
-20 17 19 18 16 17 22 16 14 -2 -12 18 19 37 12 5 18 4 4 -20 -20 12 5 16 2 0 -14 -20 -20 -16 7 9 3 -13 -20 -20 -20 -0 -2 -11 -20 -20 -20 -20 -20 -20 -20 -20 -20 -20 -20 -20 -20 -20
11 10 -20 6 20 27 16 12 -20 -11 1 20 35 24 16 9 16 -8 -5 -20 -20 -11 35 28 2 -20 -20 -20 -20 -19 7 17 4 -17 -20 -20 -20 -17 9 -20 -20 -20 -20 -20 -20 -20 -20 -20 -20 -20 -20 -20 -20 -20
17 -3 2 12 13 4 -11 -14 -4 17 20 20 31 22 26 19 26 1 -20 -19 -20 1 12 22 6 -17 -20 -20 -20 -20 -13 0 -13 -20 -20 -20 -20 -20 -20 -20 -20 -20 -20 -20 -20 -20 -20 -20 -20 -20 -20 -20 -20 -20
25 19 2 10 17 11 9 3 21 19 26 31 24 13 19 27 32 27 12 14 -20 7 26 -18 28 -0 -7 -20 -20 -20 -20 -18 -20 -20 -20 -20 -20 -13 -20 -20 -20 -5 -20 -20 -20 -20 -20 -20 -20 -20 -20 -20 -20 -20
-3 24 28 25 26 24 23 27 28 32 25 24 24 28 34 31 31 20 -14 4 -19 11 30 7 21 15 8 12 -20 -20 -20 -20 -20 -20 -20 -20 -20 -20 -20 -20 -20 -20 -20 -20 -20 -20 -20 -20 -20 -20 -20 -20 -20 -20
-20 -20 -6 18 18 15 14 16 21 21 19 23 12 20 18 11 18 -18 13 -20 -20 16 26 31 -15 -20 -7 17 25 -2 -20 -20 -20 -20 -20 -20 -20 -20 -20 -20 -20 -11 -6 -20 -3 -12 -20 -20 -20 -20 -20 -20 -20 -20
-20 -20 -20 -20 8 15 15 12 1 -2 10 16 -7 -20 -20 1 -11 -4 11 -20 12 28 33 23 15 25 -20 -8 -6 25 -4 -11 -20 -20 -20 -20 -20 -20 -20 -20 -20 -20 -20 -20 0 4 -20 -20 -20 -20 -20 -20 -20 -20
-9 -16 -7 -20 -15 -6 2 -20 -20 -20 -20 -20 -20 -20 -20 -20 -3 32 16 10 26 36 28 -16 -6 1 -7 12 10 19 24 2 -15 -20 -20 -20 -20 -20 -20 -20 -20 -20 -20 -20 -20 -9 -20 -20 -20 -20 -20 -20 -20 -20
1 1 10 -20 -20 -20 -20 -20 -20 -1 16 -20 6 13 22 26 27 16 17 10 15 -2 9 -13 29 -10 -18 24 18 26 23 13 -15 -20 -20 -20 -20 -20 -20 -20 -20 -19 1 -10 4 -8 4 2 -5 -20 -20 -20 -20 -20
-20 -20 -20 -20 -20 -20 -20 -20 -20 -19 14 16 24 26 9 -9 16 5 23 29 28 -18 -20 -4 -20 8 -20 10 22 20 -20 -20 10 12 6 -20 -20 -20 -20 -20 -20 -20 -19 -16 -5 9 -10 -20 -20 -20 -20 -20 -20 -20
-20 -20 -20 13 19 11 -20 -20 3 -12 7 7 9 -8 -20 19 14 -3 -17 -19 -13 -17 -16 -16 6 34 -17 -20 10 -16 24 13 9 -2 -13 -13 -20 -20 -20 -20 -20 -20 -20 -2 10 -10 -17 7 -20 -20 -20 -19 -20 -20
-20 -20 -7 21 -9 4 -20 -20 -20 -2 8 24 5 -11 2 13 -7 15 19 17 16 -7 -20 -15 -20 -13 -15 -15 -13 -20 3 17 17 -20 -19 -19 -20 -20 -20 -20 -20 -20 -17 -20 6 18 28 26 22 15 -10 -13 4 10
-14 10 15 17 16 11 3 1 8 25 13 27 12 -19 -20 -11 3 -6 13 24 21 22 2 -4 -15 -7 4 13 8 11 11 7 21 -3 -13 -20 -20 -20 -20 -20 -11 28 36 22 17 11 -12 10 -12 -16 -8 -11 -12 12
-20 -20 -11 -12 5 10 36 33 30 30 10 9 6 11 17 7 3 7 23 25 17 15 18 19 -12 -18 21 31 25 -4 11 19 27 21 7 4 24 17 16 22 20 18 9 8 4 -1 2 -7 -13 10 18 21 22 20
-20 -17 12 18 31 29 36 30 36 37 27 20 33 26 25 24 25 24 26 22 27 25 23 -8 -20 -5 32 30 23 13 14 15 7 11 16 22 32 24 11 -1 14 9 -2 -8 -6 3 15 16 17 20 21 20 21 19
-16 -11 17 28 27 27 24 23 20 11 16 19 23 22 25 27 24 20 3 4 9 12 10 21 30 9 -5 -7 15 9 -3 -19 -5 14 16 24 25 25 21 21 22 20 22 21 18 19 17 14 9 9 10 10 11 11
17 22 14 13 24 27 28 26 21 26 23 16 14 17 15 11 7 9 5 10 7 -7 -18 -19 -19 -20 -19 -20 -20 -18 5 17 18 18 18 21 21 23 21 18 16 17 17 16 13 12 8 5 2 0 -3 -4 -7 -12
3 -1 23 24 29 33 34 24 13 15 -10 1 3 6 -14 -5 -6 -14 -9 -14 -9 8 -0 -6 7 11 12 3 -13 1 9 16 18 16 14 14 10 11 16 15 15 13 11 12 11 12 11 9 7 3 -9 -14 -20 -20
24 26 30 29 32 15 -9 7 0 -17 1 -0 -16 -20 -20 -20 -20 -20 -20 -19 -19 -20 -20 -20 -20 -20 -6 0 4 4 7 7 13 14 13 15 17 16 16 14 13 11 7 8 8 10 9 8 8 5 6 6 4 5
34 33 32 32 28 13 2 -20 -8 -18 -2 -2 -20 -20 -20 -20 -20 -20 -20 -20 -20 -20 -20 -20 -5 5 6 8 10 9 9 10 13 13 9 12 15 16 15 14 13 13 8 5 4 4 4 4 7 9 9 8 6 -0
33 31 26 10 5 3 8 -11 -20 -8 -20 -17 -20 -20 -20 -20 -20 -20 -20 -20 -20 -20 -0 4 1 5 8 9 9 10 8 7 2 -3 -8 -12 5 5 7 9 7 5 1 1 -6 1 -10 -9 -5 -13 -20 -20 -20 -20
-20 -14 -20 -20 -20 -20 -20 -20 -20 -20 -20 -20 -20 -20 -20 -20 -20 -20 -20 -20 -20 5 7 -6 2 3 -3 -1 6 4 11 2 -2 -13 -6 -7 -20 -20 -19 -1 -17 -20 -20 -20 -20 -20 -20 -20 -20 -20 -20 -20 -20 -20
-20 -20 -20 -20 -20 -20 -20 -20 -20 -20 -20 -20 -20 -20 -20 -20 -20 -20 -20 -16 -4 2 -2 -0 -1 -2 -11 6 -1 -12 -12 -11 -20 -20 -20 -20 -20 -20 -20 -20 -20 -20 -20 -20 -20 -20 -20 -20 -20 -20 -20 -20 -20 -20
-20 -20 -20 -20 -20 -20 -20 -20 -20 -20 -20 -20 -20 -20 -20 -20 -20 -20 -20 -20 -1 -9 -20 -20 -20 -20 -20 -20 -20 -20 -20 -20 -20 -20 -20 -20 -20 -20 -20 -20 -20 -20 -20 -20 -20 -20 -20 -20 -20 -20 -20 -20 -20 -20
-20 -20 -20 -20 -20 -20 -20 -20 -20 -20 -20 -20 -20 -20 -20 -20 -20 -20 -20 -20 -20 -20 -20 -20 -20 -20 -20 -20 -20 -20 -20 -20 -20 -20 -20 -20 -20 -20 -20 -20 -20 -20 -20 -20 -20 -20 -20 -20 -20 -20 -20 -20 -20 -20
-20 -20 -20 -20 -20 -20 -20 -20 -20 -20 -20 -20 -20 -20 -20 -20 -20 -20 -20 -20 -20 -20 -20 -20 -20 -20 -20 -20 -20 -20 -20 -20 -20 -20 -20 -20 -20 -20 -20 -20 -20 -20 -20 -20 -20 -20 -20 -20 -20 -20 -20 -20 -20 -20
-20 -20 -20 -20 -20 -20 -20 -20 -20 -20 -20 -20 -20 -20 -20 -20 -20 -14 -20 -20 -20 -20 -20 -20 -20 -20 -20 -20 -20 -20 -20 -20 -20 -20 -20 -20 -20 -20 -20 -20 -20 -20 -20 -20 -20 -20 -20 -20 -20 -20 -20 -20 -20 -20
-20 -20 -20 -20 -20 -20 -20 -20 -20 -20 -20 -20 -20 -20 -20 -20 -20 -20 -20 -20 -20 -20 -20 -20 -20 -20 -20 -20 -20 -20 -20 -20 -20 -20 -20 -20 -20 -20 -20 -20 -20 -20 -20 -20 -20 -20 -20 -20 -20 -20 -20 -20 -20 -20
-20 -20 -20 -20 -20 -20 -20 -20 -20 -20 -20 -20 -20 -20 -20 -20 -20 -20 -20 -20 -20 -20 -20 -20 -20 -20 -20 -20 -20 -20 -20 -20 -20 -20 -20 -20 -20 -20 -20 -20 -20 -20 -20 -20 -20 -20 -10 -20 -20 -20 -20 -20 -20 -20
-20 -20 -20 -20 -20 -20 -20 -20 -20 -20 -20 -20 -20 -18 -20 -20 -20 -20 -20 -20 -20 -20 -20 -20 -20 -20 -20 -20 -20 -20 -20 -20 -20 -20 -20 -20 -20 -20 -20 -20 -20 -20 -20 -20 -20 -20 -20 -20 -20 -20 -20 -20 -20 -20
-20 -20 -20 -20 -20 -20 -20 -20 -20 -20 -20 -20 -20 -20 -20 -20 -20 -20 -20 -20 -20 -20 -20 -20 -20 -20 -20 -20 -20 -20 -20 -20 -20 -20 -20 -20 -20 -20 -20 -20 -20 -20 -20 -20 -20 -20 -20 -20 -20 -20 -20 -20 -20 -20
-20 -20 -20 -20 -20 -20 -20 -20 -20 -20 -20 -20 -20 -20 -20 -20 -20 -20 -20 -20 -20 -20 -20 -20 -20 -20 -20 -20 -20 -20 -20 -20 -20 -20 -20 -20 -20 -20 -20 -20 -20 -20 -20 -20 -20 -20 -20 -20 -20 -20 -20 -20 -20 -20
-20 -20 -20 -20 -20 -20 -20 -20 -20 -20 -20 -20 -20 -20 -20 -20 -20 -20 -20 -20 -20 -20 -20 -20 -20 -20 -20 -20 -20 -20 -20 -20 -20 -20 -20 -20 -20 -20 -20 -20 -20 -20 -20 -20 -20 -20 -20 -20 -20 -20 -20 -20 -20 -20
Wind_Speed
8 9 11 13 16 18 26 27 29 30 29 36 37 37 40 41 36 9 4 3 4 1 2 6 4 9 10 17 9 6 8 5 2 5 4 4 3 5 3 4 7 8 8 4 4 2 8 8 6 11 7 2 6 11
12 12 16 17 18 23 24 27 27 30 35 37 35 33 39 38 34 11 5 3 4 4 4 4 4 8 8 14 13 14 7 8 8 6 4 3 3 1 6 8 0 4 7 8 10 8 2 11 4 7 4 4 6 12
28 12 13 14 13 16 21 22 27 32 34 36 35 33 32 30 27 9 4 4 5 2 8 4 7 3 4 9 7 6 2 6 5 4 6 4 5 5 6 7 2 4 3 3 3 5 7 7 3 3 5 5 6 9
24 28 26 22 21 25 26 29 32 33 31 30 31 30 30 27 26 12 4 3 4 2 4 5 1 7 8 9 7 4 2 4 5 2 3 4 5 4 5 3 4 3 8 7 3 5 2 9 9 5 5 5 10 10
20 22 24 26 25 27 29 29 28 27 27 27 26 27 25 27 26 8 3 5 8 3 3 5 9 5 9 11 12 10 9 3 3 2 2 3 3 4 1 2 4 6 8 7 8 11 7 5 11 9 10 9 12 18
18 20 21 22 24 26 27 26 26 26 27 27 27 27 27 25 17 5 2 2 5 5 5 3 4 4 3 8 11 13 10 5 3 3 3 2 2 2 5 5 6 9 7 2 1 2 3 5 6 6 9 12 11 13
17 18 19 20 22 23 24 25 25 26 27 27 26 26 25 26 8 4 5 4 17 4 3 3 4 4 3 2 2 4 5 3 3 3 2 2 1 1 2 6 4 6 6 4 6 8 2 5 5 6 12 14 16 15
13 15 18 20 20 21 22 22 22 22 22 22 22 23 26 21 7 4 1 13 15 5 1 3 4 3 1 1 2 2 4 2 0 3 1 3 1 0 5 5 4 2 6 6 2 4 2 12 13 13 14 15 17 16
12 13 15 18 20 21 21 21 22 23 25 23 25 25 13 3 3 4 11 16 2 2 4 2 2 3 3 1 1 0 1 3 1 2 3 4 2 6 4 5 6 7 3 8 11 7 12 11 14 14 15 15 18 17
12 14 13 17 21 21 21 22 22 23 23 25 14 3 3 3 12 15 4 4 2 3 2 2 1 3 2 0 1 1 3 3 3 3 3 3 3 1 3 5 6 10 13 14 9 5 7 12 12 12 11 11 14 15
10 10 13 15 16 26 24 23 22 23 20 3 3 3 2 18 3 3 2 3 2 2 4 4 5 2 1 2 2 2 2 2 4 4 5 3 2 2 7 4 5 5 9 7 5 9 7 8 12 15 14 13 12 14
12 15 19 18 19 25 27 25 22 6 3 4 3 5 4 2 3 3 3 2 4 5 3 4 3 3 1 1 4 1 3 2 4 2 3 2 3 4 3 5 8 8 7 10 8 16 16 13 12 15 14 13 13 14
14 15 17 17 19 22 23 17 8 8 3 1 3 4 2 1 2 6 6 3 3 2 1 1 2 2 1 3 3 3 3 2 3 1 3 3 3 3 3 4 9 14 5 11 19 16 17 15 13 15 16 13 15 15
12 12 13 14 13 13 11 22 19 6 3 3 3 5 2 1 2 1 1 1 0 1 1 1 2 2 2 3 0 4 1 1 2 2 4 3 3 4 6 7 9 13 10 14 14 16 16 16 15 14 13 12 13 12
11 13 14 11 11 12 17 17 9 2 1 4 4 4 3 3 3 3 2 1 2 2 1 2 3 3 4 4 4 1 3 6 6 5 4 7 6 5 8 9 10 11 10 12 12 14 14 15 15 14 11 11 11 11
14 11 5 16 15 12 14 9 6 4 4 4 8 6 6 2 4 3 6 4 5 5 2 4 4 4 6 3 6 7 4 5 6 6 7 5 7 6 8 9 10 11 12 12 12 13 14 13 13 12 12 11 10 10
7 2 19 20 16 16 14 5 4 6 6 5 4 8 5 2 5 6 6 7 5 2 4 3 8 6 3 5 6 6 5 5 9 7 6 7 7 8 9 11 12 13 13 13 13 14 14 12 12 13 14 11 11 11
3 10 24 20 13 6 3 3 4 6 8 5 4 8 8 7 7 7 7 9 4 4 4 7 5 10 7 6 4 4 4 8 4 7 9 9 12 12 11 14 14 14 14 14 14 13 12 12 13 10 13 12 11 10
9 13 18 16 6 3 4 5 5 7 8 3 5 4 4 5 11 9 9 9 8 7 6 6 8 6 4 4 4 6 6 5 5 7 10 15 14 14 15 15 16 16 15 15 14 11 11 14 10 8 6 6 6 5
20 14 12 11 7 3 6 5 4 6 5 2 2 8 7 7 7 10 13 12 10 7 10 9 6 4 4 5 5 5 6 5 4 7 10 10 10 14 15 11 10 12 12 13 13 13 10 10 9 9 8 7 5 5
10 5 7 4 3 6 6 3 5 4 4 3 1 2 4 6 14 13 11 9 12 8 7 6 5 6 8 7 7 6 9 10 10 7 7 8 9 10 10 10 12 10 11 9 10 10 11 9 7 7 7 7 6 5
2 3 3 4 5 6 6 6 4 1 4 2 3 4 5 4 4 7 5 10 8 7 5 5 7 7 9 13 11 13 11 14 13 11 13 10 10 10 10 9 9 10 10 9 8 8 8 7 7 7 6 6 6 5
5 6 5 7 9 8 2 3 6 6 5 3 3 5 5 4 4 3 7 6 5 7 7 7 10 12 11 11 13 15 14 14 10 10 9 9 9 9 9 10 9 8 8 9 7 7 6 7 7 7 6 6 6 6
9 8 8 6 7 2 4 7 4 4 5 5 4 4 4 3 2 6 5 4 5 7 8 10 7 6 8 11 10 9 9 8 9 9 8 8 8 9 9 9 9 8 8 6 6 6 6 5 6 6 5 5 5 5
11 10 8 7 4 8 7 5 5 5 4 4 5 4 3 3 5 5 3 2 4 5 6 7 7 7 6 6 7 8 10 7 8 9 8 6 6 6 7 8 8 8 6 6 6 6 5 5 5 6 6 6 7 8
11 7 7 3 4 6 2 5 5 4 3 5 5 2 4 5 6 4 2 1 2 3 4 4 3 5 7 6 5 5 6 5 6 9 7 7 7 5 6 6 5 6 7 4 5 5 6 5 5 7 6 7 5 6
8 6 4 4 3 4 5 3 2 6 5 4 2 4 5 6 3 2 2 4 2 2 4 4 4 5 6 6 6 6 6 7 7 7 6 6 7 6 5 5 5 4 5 5 4 4 5 5 5 5 5 5 6 5
5 5 5 5 6 4 5 4 4 4 2 2 4 6 5 4 3 2 3 4 4 5 5 6 6 5 5 5 4 3 4 3 4 4 4 5 5 5 5 3 3 4 4 4 4 3 4 3 5 6 6 7 7 6
5 3 5 6 5 7 7 4 2 3 4 3 5 3 3 3 2 2 2 3 3 4 4 4 4 3 4 4 5 5 5 4 4 5 5 3 4 4 6 4 3 4 4 5 7 7 6 4 5 4 5 5 5 6
2 1 6 5 6 5 3 1 1 2 4 3 4 4 4 3 3 3 3 3 3 3 2 2 1 2 3 3 2 4 4 4 4 3 2 2 2 5 4 4 4 4 4 4 5 6 6 4 4 4 5 6 6 6
1 4 6 5 5 1 2 2 1 3 4 5 4 5 3 2 1 3 3 2 3 3 3 3 3 2 3 3 3 2 3 2 3 2 1 2 2 3 3 3 3 3 3 4 4 4 4 3 3 4 6 7 7 6
4 4 5 6 3 1 1 2 2 4 3 4 2 2 3 4 1 2 2 2 2 2 1 2 2 1 2 1 0 1 2 3 3 3 3 2 3 3 4 3 2 2 3 3 3 3 3 3 4 4 5 6 7 7
4 3 4 5 4 2 2 3 4 3 3 3 1 2 2 4 4 4 0 1 3 3 2 3 3 2 3 3 2 0 2 3 4 5 5 4 3 4 4 2 2 2 4 3 3 3 4 4 4 4 5 5 6 7
Wind_Direction
22 51 92 130 148 154 151 156 160 164 170 166 157 166 169 168 169 132 102 100 126 126 288 315 324 161 164 202 183 149 136 211 117 167 175 198 192 179 165 230 181 163 155 175 111 139 262 157 97 173 215 197 187 172
33 76 95 109 116 136 154 153 156 161 156 150 156 159 162 165 171 131 116 79 88 90 310 317 256 267 259 192 164 175 175 161 182 165 188 104 164 153 143 238 4 219 193 177 189 204 207 198 195 191 149 188 194 165
32 78 109 101 117 135 145 150 153 152 148 149 158 162 165 162 164 112 95 115 65 107 297 209 238 270 222 232 218 150 210 166 180 187 164 184 191 132 158 223 215 237 181 173 119 210 217 217 229 222 189 204 171 171
46 49 73 91 105 126 122 130 135 131 134 148 154 156 160 161 153 127 108 119 101 51 274 283 204 229 212 202 199 207 144 84 102 127 176 160 164 182 201 204 216 190 143 160 262 265 309 250 227 187 165 143 120 113
66 68 68 76 83 89 98 106 115 130 137 136 139 141 145 150 154 113 83 152 183 172 298 299 319 252 210 182 186 200 205 139 139 153 136 223 128 130 142 112 235 200 171 169 211 206 182 218 185 157 157 165 146 130
73 80 87 87 87 92 100 109 114 120 125 125 127 134 136 139 127 94 95 245 186 143 295 292 304 274 208 177 184 194 201 193 156 159 196 237 279 162 164 192 243 205 203 188 188 109 67 68 94 133 139 147 140 133
86 89 95 101 108 112 113 117 120 122 127 131 135 136 145 148 143 149 203 189 152 151 226 245 263 217 213 169 150 148 156 172 163 190 221 150 227 232 138 190 242 219 178 153 133 119 90 193 181 139 127 121 115 115
83 86 102 111 115 118 120 123 127 129 133 135 140 142 146 150 68 243 287 138 136 217 247 290 266 324 282 153 146 8 129 120 86 151 86 157 100 2 247 203 169 146 115 109 146 45 355 116 118 122 125 128 120 121
89 97 108 119 120 121 124 125 124 123 125 133 128 132 134 174 170 217 149 144 207 196 176 175 273 279 14 93 59 196 81 120 63 158 186 140 162 222 241 192 169 169 209 142 93 97 125 134 133 138 136 134 126 134
85 93 95 121 137 134 132 134 130 130 129 129 130 137 129 194 129 112 133 164 207 253 240 211 199 261 106 279 154 329 40 134 158 209 126 177 237 326 355 326 145 140 137 130 112 116 124 127 134 135 131 128 129 131
85 92 99 110 113 145 142 130 131 131 134 157 138 165 189 158 108 50 131 154 170 240 205 216 175 221 232 138 121 14 111 342 182 191 172 184 258 0 342 52 86 134 144 97 124 125 139 152 143 128 114 114 118 121
87 71 72 94 102 128 143 141 142 141 158 207 145 93 97 109 85 155 188 163 218 218 199 168 174 195 252 244 97 154 138 121 237 143 131 164 22 339 345 86 71 58 62 105 131 109 109 123 128 113 115 112 103 101
76 75 81 98 108 121 128 133 69 63 257 85 68 80 154 19 178 186 186 209 188 190 224 168 147 150 119 57 76 110 159 174 356 30 77 41 354 13 52 87 96 77 99 96 91 94 100 104 99 107 105 102 103 100
104 97 91 84 92 106 107 70 42 1 40 53 69 79 16 358 25 8 304 314 178 182 269 146 112 125 89 70 271 100 81 108 57 27 50 11 32 34 60 74 80 88 77 84 97 99 101 99 93 91 93 101 104 103
112 94 88 80 95 114 83 71 69 132 73 68 43 60 50 354 343 346 297 261 298 234 187 115 71 60 43 69 29 83 50 58 22 6 344 341 18 45 57 65 83 95 95 89 91 95 96 96 94 89 83 89 98 103
117 99 90 94 77 118 103 61 25 30 51 60 44 353 349 19 359 350 352 8 356 348 11 36 70 66 44 32 49 18 50 40 353 326 330 352 32 46 64 70 74 79 83 86 85 89 89 88 92 90 82 79 79 88
115 65 126 99 88 73 62 69 29 47 46 45 42 13 343 14 13 353 345 342 310 12 47 48 50 28 343 56 49 20 31 343 319 343 3 28 51 62 71 74 76 80 80 79 81 80 85 87 89 87 88 83 85 82
62 136 125 120 102 127 105 71 84 63 61 20 36 12 33 30 5 16 353 355 18 55 32 48 42 34 33 32 35 7 324 318 13 14 16 32 49 57 60 66 65 69 73 74 77 80 80 81 81 82 90 91 89 87
130 117 90 80 68 77 72 35 55 79 41 23 356 4 16 28 22 16 18 15 36 49 84 58 52 39 36 10 328 329 334 339 26 31 41 39 43 52 58 60 62 63 64 65 66 66 65 62 68 77 81 82 83 73
94 80 81 70 46 57 62 38 58 71 54 94 101 48 52 34 10 28 33 25 33 54 46 51 36 15 3 353 342 347 338 354 70 61 48 39 40 50 51 58 60 65 66 63 59 59 64 60 48 49 52 59 73 62
77 14 49 58 53 64 73 42 61 88 124 82 24 47 74 34 38 32 32 9 44 40 61 42 43 38 28 27 19 34 43 47 51 52 64 59 41 53 55 54 60 60 62 59 62 57 54 53 46 44 48 46 44 39
98 75 81 8 74 60 68 20 88 89 72 86 47 45 44 30 18 21 26 33 52 31 35 32 30 35 40 36 35 37 49 58 57 56 52 53 49 46 44 44 54 58 54 51 55 57 54 42 35 39 41 29 27 31
82 48 45 31 68 55 322 11 61 16 64 1 27 44 28 34 22 25 62 36 44 7 14 39 48 48 53 46 48 47 46 59 61 56 56 58 57 53 53 46 40 56 61 49 49 55 52 31 38 37 31 33 26 28
39 53 50 49 50 74 16 23 28 50 39 27 55 63 48 43 38 58 64 40 8 4 25 31 35 55 52 45 42 36 33 52 67 57 47 66 70 61 60 61 54 53 54 59 56 54 48 42 30 39 31 31 29 23
64 359 68 18 6 65 48 28 10 51 60 16 72 47 11 38 69 68 76 49 16 8 13 26 46 51 61 61 46 42 32 46 66 72 34 52 81 88 78 72 63 49 27 46 42 35 33 28 25 23 25 22 11 0
71 359 45 30 359 69 20 62 43 47 48 52 46 51 40 69 67 69 67 58 27 11 4 10 38 68 60 48 56 43 30 38 75 73 51 41 49 63 62 53 42 39 22 26 19 19 12 8 5 2 358 358 358 351
61 31 37 41 84 90 69 53 64 68 57 45 18 38 56 65 78 71 96 24 77 23 36 32 49 74 81 74 64 52 51 52 68 87 88 67 60 54 55 52 38 10 354 15 22 18 1 354 349 347 335 330 326 334
71 56 75 322 55 32 96 59 56 60 46 47 73 45 103 150 133 21 38 98 99 89 71 58 57 64 70 63 49 55 68 74 97 100 106 90 69 56 43 42 38 16 9 9 8 11 10 3 348 343 338 332 326 329
42 341 71 30 49 47 38 54 79 47 354 83 103 107 103 69 4 5 35 83 83 87 77 83 55 50 70 69 56 42 36 40 65 50 41 14 355 360 7 4 357 3 6 349 347 354 5 23 14 11 356 341 334 332
5 21 88 57 61 49 299 77 85 287 25 75 95 94 68 43 9 11 57 68 88 98 111 105 74 84 78 57 41 29 34 36 46 80 61 357 310 317 336 343 345 352 352 351 349 337 350 10 345 6 2 359 2 353
4 62 73 61 78 16 180 176 51 85 49 48 34 83 119 139 32 29 55 63 110 114 96 70 60 49 87 68 67 40 359 4 10 354 288 289 311 321 327 332 329 331 343 347 345 342 337 344 353 345 346 348 346 346
28 62 117 103 116 183 36 51 92 80 36 63 27 58 32 57 57 293 335 84 68 76 44 122 129 229 196 166 214 262 250 301 313 319 317 305 294 317 319 322 331 331 335 342 346 344 338 331 323 331 328 333 333 333
55 52 56 91 85 169 250 82 40 72 45 71 29 149 167 150 176 227 60 56 141 157 179 203 211 196 177 176 172 214 311 295 285 287 291 305 304 309 320 328 329 330 327 328 327 321 322 316 313 321 321 320 319 323